Location: Caltech
(34.1382°N, 118.1253°W)
Time: 02:24:03
(UTC-07:00)

Cosmos 1975 - Visible Passes

Search period start: 31 July 2015 00:00
Search period end: 10 August 2015 00:00
Orbit: 547 x 569 km, 82.5° (Epoch: 30 July)

Date Brightness Start Highest point End Pass type
(mag) Time Alt. Az. Time Alt. Az. Time Alt. Az.
03 Aug 5.8 23:01:05 10° NNE 23:01:05 10° NNE 23:01:08 10° NNE visible
04 Aug 5.7 22:59:12 11° NNE 22:59:12 11° NNE 22:59:27 10° NNE visible
05 Aug 5.6 22:57:18 13° NNE 22:57:18 13° NNE 22:57:43 10° NNE visible
06 Aug 5.5 22:55:22 14° NNE 22:55:22 14° NNE 22:55:59 10° NNE visible
07 Aug 5.4 22:53:24 16° N 22:53:24 16° N 22:54:13 10° N visible
08 Aug 5.4 22:51:26 17° N 22:51:26 17° N 22:52:26 10° N visible
09 Aug 5.3 22:49:26 19° N 22:49:26 19° N 22:50:37 10° N visible
